Powrót do katalogu

STARLINK-32399

AktywnyŁącznośćVLEO
NORAD 61627·PAYLOAD·🇺🇸 United States

Wystrzelony Oct 23, 2024 z Cape Canaveral Space Force Station

Loading…

Następne Przeloty (najbliższe 24 godziny)

TLE

ŚwieżeSource: CelesTrak SupGP

Epoka: Sep 15, 2026, 03:22 UTC

1 61627C 24191G   26258.14076389  .00046603  00000+0  16884-2 0  2585
2 61627  43.0012 157.1588 0001460 275.6592 179.6102 15.27546391    16

Śledź STARLINK-32399 w czasie rzeczywistym z AllMySat

Download on the App Store